FENGYUN 1C DEB

Satellite information

Favourite Embed

Satellite Type and Status

DEBRISIN ORBIT

Key statistics

Satellite FENGYUN 1C DEB at a glance.

Uptime

9498

Days in orbit

Revolutions

≈ 14.2

Per day

Orbit

SSO

Sun Synchronous Orbit

Inclination

99.2

Latest

Satellite identification and parameters

Extended collection of information and parameters for FENGYUN 1C DEB.

Object identification

Identified? True

Debris? True

Object name: FENGYUN 1C DEB

International designator: 1999-025BFT

Object number (NORAD): 31073

Object ID (CCSDS): 31073

Country: PEOPLES REPUBLIC OF CHINA (PRC)

Current information (Y/N): Y

RCS size: SMALL

Orbital parameters

Period: 101.162 minutes

Inclination: 99.241 deg

SMA: 7191.821 km

Apoapsis: 846.773 km

Periapsis: 780.6 km

RAAN: 328.3938 deg

Eccentricy: 0.0046006

Argument of periapsis: 181.5746 deg

Mean anomaly: 178.5293 deg

Mean motion: 14.23457281 rev/day

Mean motion (dot): 0.00003069 rev/day2

B* drag term: 0.0013569 1/REarth

Two-line elements (TLE)

Creation date: May 10, 2025, 2:32 a.m.

Reference frame: TEME

Reference center: EARTH

Epoch: May 9, 2025, 12:13 p.m. UTC

TLE line 0: 0 FENGYUN 1C DEB

TLE line 1: 1 31073U 99025BFT 25129.50906085 .00003069 00000-0 13569-2 0 9995

TLE line 2: 2 31073 99.2410 328.3938 0046006 181.5746 178.5293 14.23457281939918

Live tracking on map

Real-time ground track for satellite FENGYUN 1C DEB.

In-orbit conjunctions

A list of the most updated potential collisions computed for object FENGYUN 1C DEB.

Target Orbit TCA Probability of collision Miss distance Type
COSMOS 1867 COOLANT LEO 2025-03-03 02:00:29 0.0001074794 30.0 (m) DEBRIS
CZ-6A DEB LEO 2024-11-30 09:12:28 0.0001904893 480.0 (m) DEBRIS
CZ-6A DEB LEO 2024-11-27 16:01:12 0.0001382408 515.0 (m) DEBRIS
METEOR 2-8 DEB LEO 2024-11-12 13:56:27 0.0002643033 309.0 (m) DEBRIS
DMSP 5D-2 F13 DEB SSO 2024-09-25 10:52:03 0.0008292261 841.0 (m) DEBRIS

Associated space launch

Chinese polar orbiting meteorological satellite

FENGYUN 1C DEB was lifted into orbit during the mission ‘Long March 4B | Feng Yun 1C’, on board a Long March 4B space rocket.

The launch took place on May 10, 1999, 1:33 a.m. from Launch Complex 7.

For more information about the launch, click the button.

Launch to space Long March 4B | Feng Yun 1C
Long March 4B | Feng Yun 1C

Agency: N/A

Status: Launch Successful

Launch date: May 10, 1999, 1:33 a.m. UTC

Rocket: Long March 4B

Launch pad: Launch Complex 7

Location: Taiyuan Satellite Launch Center, People's Republic of China

...

Latest news about this satellite

There are no fresh news available about this satellite. Check back as we update our databases every day.


Newsletter sign-up

Weekly statistics, charts and insights to help you stay on top of the space industry.